Time,TemperatureF,DewpointF,PressureIn,WindDirection,WindDirectionDegrees,WindSpeedMPH,WindSpeedGustMPH,Humidity,HourlyPrecipIn,Conditions,Clouds,dailyrainin,SoftwareType,DateUTC
2013-04-13 06:55:00,26.1,22.8,29.81,SW,225,0.0,2.0,87,0.00,,---,0.00,VWS V14.01,2013-04-13 12:55:00,
2013-04-13 07:08:00,26.6,23.3,29.82,ESE,122,0.0,0.0,87,0.00,,---,0.00,VWS V14.01,2013-04-13 13:08:00,
2013-04-13 07:13:00,27.1,23.8,29.82,SW,222,5.0,6.0,87,0.00,,---,0.00,VWS V14.01,2013-04-13 13:13:00,
2013-04-13 07:18:00,28.8,25.7,29.79,SSW,196,1.0,3.0,88,0.00,,---,0.00,VWS V14.01,2013-04-13 13:18:00,
2013-04-13 07:23:00,30.1,26.7,29.79,SSW,194,0.0,1.0,87,0.00,,---,0.00,VWS V14.01,2013-04-13 13:23:00,
2013-04-13 07:28:00,32.1,28.1,29.77,SSW,196,0.0,6.0,85,0.00,,---,0.00,VWS V14.01,2013-04-13 13:28:00,
2013-04-13 07:33:00,32.7,27.5,29.75,West,268,4.0,5.0,81,0.00,,---,0.00,VWS V14.01,2013-04-13 13:33:00,
2013-04-13 07:38:00,33.4,27.6,29.75,West,261,6.0,6.0,79,0.00,,---,0.00,VWS V14.01,2013-04-13 13:38:00,
2013-04-13 07:43:00,34.8,28.6,29.73,SE,128,0.0,5.0,78,0.00,,---,0.00,VWS V14.01,2013-04-13 13:43:00,
2013-04-13 07:48:00,37.3,28.4,29.71,South,189,0.0,10.0,70,0.00,,---,0.00,VWS V14.01,2013-04-13 13:48:00,
2013-04-13 07:53:00,39.1,28.3,29.69,SSE,167,3.0,8.0,65,0.00,,---,0.00,VWS V14.01,2013-04-13 13:53:00,
2013-04-13 07:58:00,40.9,26.9,29.68,SSW,196,0.0,5.0,57,0.00,,---,0.00,VWS V14.01,2013-04-13 13:58:00,
2013-04-13 08:03:00,41.9,26.5,29.67,South,186,12.0,13.0,54,0.00,,---,0.00,VWS V14.01,2013-04-13 14:03:00,
2013-04-13 08:08:00,42.3,26.9,29.71,SSW,194,0.0,7.0,54,0.00,,---,0.00,VWS V14.01,2013-04-13 14:08:00,
2013-04-13 08:13:00,43.4,23.0,29.70,SSW,213,6.0,8.0,44,0.00,,---,0.00,VWS V14.01,2013-04-13 14:13:00,
2013-04-13 08:18:00,44.7,23.0,29.68,South,190,5.0,10.0,42,0.00,,---,0.00,VWS V14.01,2013-04-13 14:18:00,
2013-04-13 08:23:00,45.4,24.2,29.68,SSW,197,1.0,6.0,43,0.00,,---,0.00,VWS V14.01,2013-04-13 14:23:00,
2013-04-13 08:28:00,45.7,21.6,29.67,SSW,196,8.0,14.0,38,0.00,,---,0.00,VWS V14.01,2013-04-13 14:28:00,
2013-04-13 08:33:00,46.0,20.6,29.68,SSW,202,5.0,14.0,36,0.00,,---,0.00,VWS V14.01,2013-04-13 14:33:00,
2013-04-13 08:38:00,46.3,20.2,29.67,SSW,194,7.0,9.0,35,0.00,,---,0.00,VWS V14.01,2013-04-13 14:38:00,
2013-04-13 08:43:00,46.8,20.6,29.65,SSW,202,5.0,11.0,35,0.00,,---,0.00,VWS V14.01,2013-04-13 14:43:00,
2013-04-13 08:48:00,46.9,21.4,29.64,South,187,7.0,9.0,36,0.00,,---,0.00,VWS V14.01,2013-04-13 14:48:00,
2013-04-13 08:53:00,47.3,19.7,29.64,SSW,199,6.0,12.0,33,0.00,,---,0.00,VWS V14.01,2013-04-13 14:53:00,
2013-04-13 08:58:00,47.6,19.2,29.65,SW,229,8.0,14.0,32,0.00,,---,0.00,VWS V14.01,2013-04-13 14:58:00,
2013-04-13 09:03:00,47.9,18.7,29.64,WSW,237,8.0,12.0,31,0.00,,---,0.00,VWS V14.01,2013-04-13 15:03:00,
2013-04-13 09:08:00,48.2,19.7,29.67,West,261,2.0,8.0,32,0.00,,---,0.00,VWS V14.01,2013-04-13 15:08:00,
2013-04-13 09:13:00,48.3,19.1,29.67,WSW,238,7.0,13.0,31,0.00,,---,0.00,VWS V14.01,2013-04-13 15:13:00,
2013-04-13 09:18:00,48.4,16.8,29.67,WNW,283,4.0,9.0,28,0.00,,---,0.00,VWS V14.01,2013-04-13 15:18:00,
2013-04-13 09:23:00,48.5,16.9,29.67,West,270,7.0,13.0,28,0.00,,---,0.00,VWS V14.01,2013-04-13 15:23:00,
2013-04-13 09:28:00,48.0,18.1,29.67,SW,225,5.0,16.0,30,0.00,,---,0.00,VWS V14.01,2013-04-13 15:28:00,
2013-04-13 09:33:00,47.9,17.2,29.66,SW,231,7.0,19.0,29,0.00,,---,0.00,VWS V14.01,2013-04-13 15:33:00,
2013-04-13 09:38:00,47.9,18.0,29.67,WSW,248,9.0,15.0,30,0.00,,---,0.00,VWS V14.01,2013-04-13 15:38:00,
2013-04-13 09:43:00,48.3,16.7,29.66,SSW,211,6.0,15.0,28,0.00,,---,0.00,VWS V14.01,2013-04-13 15:43:00,
2013-04-13 09:48:00,49.2,18.3,29.66,SW,224,15.0,20.0,29,0.00,,---,0.00,VWS V14.01,2013-04-13 15:48:00,
2013-04-13 09:53:00,49.6,16.1,29.64,SW,229,12.0,16.0,26,0.00,,---,0.00,VWS V14.01,2013-04-13 15:53:00,
2013-04-13 09:58:00,50.3,17.6,29.63,West,263,8.0,9.0,27,0.00,,---,0.00,VWS V14.01,2013-04-13 15:58:00,
2013-04-13 10:04:00,51.0,18.2,29.63,South,190,10.0,15.0,27,0.00,,---,0.00,VWS V14.01,2013-04-13 16:04:00,
2013-04-13 10:09:00,50.7,17.1,29.61,WSW,241,12.0,14.0,26,0.00,,---,0.00,VWS V14.01,2013-04-13 16:09:00,
2013-04-13 10:14:00,50.8,17.2,29.62,WSW,252,8.0,15.0,26,0.00,,---,0.00,VWS V14.01,2013-04-13 16:14:00,
2013-04-13 10:19:00,51.0,16.4,29.62,West,263,4.0,15.0,25,0.00,,---,0.00,VWS V14.01,2013-04-13 16:19:00,
2013-04-13 10:24:00,51.0,16.4,29.61,WSW,252,6.0,9.0,25,0.00,,---,0.00,VWS V14.01,2013-04-13 16:24:00,
2013-04-13 10:29:00,51.2,18.4,29.61,West,263,10.0,14.0,27,0.00,,---,0.00,VWS V14.01,2013-04-13 16:29:00,
2013-04-13 10:34:00,51.0,16.4,29.61,SW,221,5.0,9.0,25,0.00,,---,0.00,VWS V14.01,2013-04-13 16:34:00,
2013-04-13 10:39:00,51.1,16.5,29.60,WSW,252,14.0,14.0,25,0.00,,---,0.00,VWS V14.01,2013-04-13 16:39:00,
2013-04-13 10:44:00,51.1,17.4,29.60,WSW,242,1.0,15.0,26,0.00,,---,0.00,VWS V14.01,2013-04-13 16:44:00,
2013-04-13 10:49:00,51.8,17.1,29.59,WSW,240,12.0,16.0,25,0.00,,---,0.00,VWS V14.01,2013-04-13 16:49:00,
2013-04-13 10:54:00,51.2,15.7,29.60,WSW,252,8.0,19.0,24,0.00,,---,0.00,VWS V14.01,2013-04-13 16:54:00,
2013-04-13 10:59:00,51.4,14.9,29.60,SW,214,9.0,16.0,23,0.00,,---,0.00,VWS V14.01,2013-04-13 16:59:00,
2013-04-13 11:04:00,51.4,15.8,29.59,WSW,250,7.0,16.0,24,0.00,,---,0.00,VWS V14.01,2013-04-13 17:04:00,
2013-04-13 11:09:00,51.3,15.8,29.60,WSW,250,14.0,19.0,24,0.00,,---,0.00,VWS V14.01,2013-04-13 17:09:00,
2013-04-13 11:14:00,51.0,15.5,29.60,West,265,9.0,25.0,24,0.00,,---,0.00,VWS V14.01,2013-04-13 17:14:00,
2013-04-13 11:19:00,51.0,15.5,29.60,WSW,242,10.0,14.0,24,0.00,,---,0.00,VWS V14.01,2013-04-13 17:19:00,
2013-04-13 11:24:00,51.2,15.7,29.59,SW,232,7.0,14.0,24,0.00,,---,0.00,VWS V14.01,2013-04-13 17:24:00,
2013-04-13 11:29:00,51.7,16.1,29.59,South,188,12.0,24.0,24,0.00,,---,0.00,VWS V14.01,2013-04-13 17:29:00,
2013-04-13 11:34:00,52.1,17.4,29.58,SW,229,10.0,22.0,25,0.00,,---,0.00,VWS V14.01,2013-04-13 17:34:00,
2013-04-13 11:39:00,52.6,16.9,29.57,West,271,10.0,16.0,24,0.00,,---,0.00,VWS V14.01,2013-04-13 17:39:00,
2013-04-13 11:44:00,52.3,16.6,29.57,SW,224,15.0,15.0,24,0.00,,---,0.00,VWS V14.01,2013-04-13 17:44:00,
2013-04-13 11:49:00,52.1,14.4,29.58,West,259,18.0,26.0,22,0.00,,---,0.00,VWS V14.01,2013-04-13 17:49:00,
2013-04-13 11:54:00,52.3,15.6,29.58,West,263,7.0,21.0,23,0.00,,---,0.00,VWS V14.01,2013-04-13 17:54:00,
2013-04-13 11:59:00,52.3,17.5,29.57,West,261,12.0,22.0,25,0.00,,---,0.00,VWS V14.01,2013-04-13 17:59:00,
2013-04-13 12:04:00,52.0,17.3,29.57,WSW,255,11.0,14.0,25,0.00,,---,0.00,VWS V14.01,2013-04-13 18:04:00,
2013-04-13 12:09:00,52.2,18.4,29.57,NW,311,10.0,21.0,26,0.00,,---,0.00,VWS V14.01,2013-04-13 18:09:00,
2013-04-13 12:14:00,52.5,16.8,29.57,West,264,23.0,26.0,24,0.00,,---,0.00,VWS V14.01,2013-04-13 18:14:00,
2013-04-13 12:19:00,52.7,16.9,29.57,West,265,18.0,25.0,24,0.00,,---,0.00,VWS V14.01,2013-04-13 18:19:00,
2013-04-13 12:24:00,52.4,14.7,29.57,WNW,284,11.0,22.0,22,0.00,,---,0.00,VWS V14.01,2013-04-13 18:24:00,
2013-04-13 12:27:00,52.3,17.5,29.56,WSW,253,4.0,22.0,25,0.00,,---,0.00,VWS V14.01,2013-04-13 18:27:00,
2013-04-13 12:31:00,52.0,17.3,29.57,WSW,253,14.0,25.0,25,0.00,,---,0.00,VWS V14.01,2013-04-13 18:31:00,
2013-04-13 12:36:00,51.6,17.9,29.56,WSW,241,5.0,19.0,26,0.00,,---,0.00,VWS V14.01,2013-04-13 18:36:00,
2013-04-13 12:41:00,51.9,17.2,29.56,SW,235,8.0,21.0,25,0.00,,---,0.00,VWS V14.01,2013-04-13 18:41:00,
2013-04-13 12:46:00,52.7,18.8,29.54,SSW,211,7.0,12.0,26,0.00,,---,0.00,VWS V14.01,2013-04-13 18:46:00,
2013-04-13 12:51:00,54.2,19.2,29.53,WSW,248,1.0,15.0,25,0.00,,---,0.00,VWS V14.01,2013-04-13 18:51:00,
2013-04-13 12:56:00,55.3,18.1,29.53,South,180,0.0,15.0,23,0.00,,---,0.00,VWS V14.01,2013-04-13 18:56:00,
2013-04-13 13:01:00,55.2,20.0,29.52,WSW,257,14.0,15.0,25,0.00,,---,0.00,VWS V14.01,2013-04-13 19:01:00,
2013-04-13 13:06:00,54.9,19.8,29.51,WNW,290,5.0,14.0,25,0.00,,---,0.00,VWS V14.01,2013-04-13 19:06:00,
2013-04-13 13:11:00,55.2,20.9,29.52,ESE,121,4.0,12.0,26,0.00,,---,0.00,VWS V14.01,2013-04-13 19:11:00,
2013-04-13 13:16:00,56.3,21.0,29.50,SW,236,7.0,8.0,25,0.00,,---,0.00,VWS V14.01,2013-04-13 19:16:00,
2013-04-13 13:21:00,56.7,21.3,29.50,West,260,5.0,20.0,25,0.00,,---,0.00,VWS V14.01,2013-04-13 19:21:00,
2013-04-13 13:27:00,56.6,21.2,29.50,SW,229,12.0,26.0,25,0.00,,---,0.00,VWS V14.01,2013-04-13 19:27:00,
2013-04-13 13:32:00,56.1,19.8,29.50,WNW,294,4.0,23.0,24,0.00,,---,0.00,VWS V14.01,2013-04-13 19:32:00,
2013-04-13 13:37:00,56.2,20.9,29.48,SSW,202,7.0,12.0,25,0.00,,---,0.00,VWS V14.01,2013-04-13 19:37:00,
2013-04-13 13:42:00,57.0,20.6,29.49,WSW,249,7.0,15.0,24,0.00,,---,0.00,VWS V14.01,2013-04-13 19:42:00,
2013-04-13 13:47:00,56.3,20.0,29.49,WSW,246,4.0,15.0,24,0.00,,---,0.00,VWS V14.01,2013-04-13 19:47:00,
2013-04-13 13:52:00,56.9,21.5,29.49,SSW,207,4.0,14.0,25,0.00,,---,0.00,VWS V14.01,2013-04-13 19:52:00,
2013-04-13 13:57:00,56.8,21.4,29.47,West,264,8.0,24.0,25,0.00,,---,0.00,VWS V14.01,2013-04-13 19:57:00,
2013-04-13 14:02:00,56.6,20.2,29.48,SSW,199,5.0,21.0,24,0.00,,---,0.00,VWS V14.01,2013-04-13 20:02:00,
2013-04-13 14:07:00,56.2,20.9,29.47,West,262,8.0,15.0,25,0.00,,---,0.00,VWS V14.01,2013-04-13 20:07:00,
2013-04-13 14:12:00,56.5,22.0,29.50,SW,223,18.0,18.0,26,0.00,,---,0.00,VWS V14.01,2013-04-13 20:12:00,
2013-04-13 14:17:00,56.8,20.4,29.49,SW,222,6.0,26.0,24,0.00,,---,0.00,VWS V14.01,2013-04-13 20:17:00,
2013-04-13 14:22:00,56.8,21.4,29.49,WSW,257,9.0,15.0,25,0.00,,---,0.00,VWS V14.01,2013-04-13 20:22:00,
2013-04-13 14:27:00,56.3,20.0,29.50,West,265,8.0,12.0,24,0.00,,---,0.00,VWS V14.01,2013-04-13 20:27:00,
2013-04-13 14:32:00,56.4,21.0,29.50,WSW,246,0.0,10.0,25,0.00,,---,0.00,VWS V14.01,2013-04-13 20:32:00,
2013-04-13 14:37:00,56.6,21.2,29.48,WSW,250,7.0,11.0,25,0.00,,---,0.00,VWS V14.01,2013-04-13 20:37:00,
2013-04-13 14:42:00,56.0,20.7,29.49,WSW,239,5.0,15.0,25,0.00,,---,0.00,VWS V14.01,2013-04-13 20:42:00,
2013-04-13 14:47:00,56.0,20.7,29.49,West,259,8.0,16.0,25,0.00,,---,0.00,VWS V14.01,2013-04-13 20:47:00,
2013-04-13 14:52:00,56.1,20.8,29.48,West,264,11.0,16.0,25,0.00,,---,0.00,VWS V14.01,2013-04-13 20:52:00,
2013-04-13 14:57:00,56.0,20.7,29.48,WSW,255,12.0,21.0,25,0.00,,---,0.00,VWS V14.01,2013-04-13 20:57:00,
2013-04-13 15:02:00,56.0,20.7,29.48,West,281,16.0,28.0,25,0.00,,---,0.00,VWS V14.01,2013-04-13 21:02:00,
2013-04-13 15:07:00,56.0,20.7,29.47,WSW,244,9.0,22.0,25,0.00,,---,0.00,VWS V14.01,2013-04-13 21:07:00,
2013-04-13 15:12:00,56.0,20.7,29.48,West,259,7.0,21.0,25,0.00,,---,0.00,VWS V14.01,2013-04-13 21:12:00,
2013-04-13 15:17:00,56.1,20.8,29.47,West,273,13.0,24.0,25,0.00,,---,0.00,VWS V14.01,2013-04-13 21:17:00,
2013-04-13 15:22:00,56.1,20.8,29.47,West,261,10.0,22.0,25,0.00,,---,0.00,VWS V14.01,2013-04-13 21:22:00,
2013-04-13 15:27:00,55.9,20.6,29.47,West,271,14.0,14.0,25,0.00,,---,0.00,VWS V14.01,2013-04-13 21:27:00,
2013-04-13 15:32:00,55.9,20.6,29.46,WSW,242,6.0,6.0,25,0.00,,---,0.00,VWS V14.01,2013-04-13 21:32:00,
2013-04-13 15:37:00,56.0,20.7,29.45,West,265,16.0,16.0,25,0.00,,---,0.00,VWS V14.01,2013-04-13 21:37:00,
2013-04-13 15:42:00,56.2,19.9,29.45,West,263,15.0,20.0,24,0.00,,---,0.00,VWS V14.01,2013-04-13 21:42:00,
2013-04-13 15:47:00,56.4,21.0,29.44,WSW,249,12.0,13.0,25,0.00,,---,0.00,VWS V14.01,2013-04-13 21:47:00,
2013-04-13 15:52:00,56.4,20.1,29.44,South,184,18.0,22.0,24,0.00,,---,0.00,VWS V14.01,2013-04-13 21:52:00,
2013-04-13 15:57:00,56.3,20.0,29.44,West,263,8.0,10.0,24,0.00,,---,0.00,VWS V14.01,2013-04-13 21:57:00,
2013-04-13 16:02:00,56.5,20.2,29.44,West,259,11.0,14.0,24,0.00,,---,0.00,VWS V14.01,2013-04-13 22:02:00,
2013-04-13 16:07:00,56.4,20.1,29.45,WSW,258,8.0,9.0,24,0.00,,---,0.00,VWS V14.01,2013-04-13 22:07:00,
2013-04-13 16:12:00,56.6,20.2,29.44,WSW,245,6.0,6.0,24,0.00,,---,0.00,VWS V14.01,2013-04-13 22:12:00,
2013-04-13 16:17:00,56.9,20.5,29.44,West,259,12.0,12.0,24,0.00,,---,0.00,VWS V14.01,2013-04-13 22:17:00,
2013-04-13 16:22:00,57.1,21.6,29.44,SW,231,11.0,13.0,25,0.00,,---,0.00,VWS V14.01,2013-04-13 22:22:00,
2013-04-13 16:27:00,57.2,20.8,29.44,WNW,287,9.0,13.0,24,0.00,,---,0.00,VWS V14.01,2013-04-13 22:27:00,
2013-04-13 16:32:00,56.8,20.4,29.44,West,278,8.0,8.0,24,0.00,,---,0.00,VWS V14.01,2013-04-13 22:32:00,
2013-04-13 16:37:00,56.9,21.5,29.43,WSW,250,4.0,8.0,25,0.00,,---,0.00,VWS V14.01,2013-04-13 22:37:00,
2013-04-13 16:42:00,56.9,21.5,29.43,NW,304,11.0,15.0,25,0.00,,---,0.00,VWS V14.01,2013-04-13 22:42:00,
2013-04-13 16:47:00,56.7,21.3,29.43,SW,221,16.0,23.0,25,0.00,,---,0.00,VWS V14.01,2013-04-13 22:47:00,
2013-04-13 16:52:00,56.6,21.2,29.43,SW,219,1.0,5.0,25,0.00,,---,0.00,VWS V14.01,2013-04-13 22:52:00,
2013-04-13 16:57:00,56.9,23.3,29.43,West,260,18.0,18.0,27,0.00,,---,0.00,VWS V14.01,2013-04-13 22:57:00,
2013-04-13 17:02:00,57.5,22.0,29.42,SW,225,12.0,12.0,25,0.00,,---,0.00,VWS V14.01,2013-04-13 23:02:00,
2013-04-13 17:07:00,58.1,23.4,29.44,WSW,248,5.0,7.0,26,0.00,,---,0.00,VWS V14.01,2013-04-13 23:07:00,
2013-04-13 17:12:00,59.0,23.2,29.43,SW,236,8.0,11.0,25,0.00,,---,0.00,VWS V14.01,2013-04-13 23:12:00,
2013-04-13 17:17:00,59.3,23.5,29.43,WSW,246,7.0,12.0,25,0.00,,---,0.00,VWS V14.01,2013-04-13 23:17:00,
2013-04-13 17:22:00,58.8,23.1,29.43,SSW,213,10.0,16.0,25,0.00,,---,0.00,VWS V14.01,2013-04-13 23:22:00,
2013-04-13 17:27:00,58.8,24.0,29.42,WSW,248,6.0,6.0,26,0.00,,---,0.00,VWS V14.01,2013-04-13 23:27:00,
2013-04-13 17:32:00,58.6,22.9,29.42,West,277,1.0,2.0,25,0.00,,---,0.00,VWS V14.01,2013-04-13 23:32:00,
2013-04-13 17:37:00,58.7,23.0,29.43,South,188,7.0,8.0,25,0.00,,---,0.00,VWS V14.01,2013-04-13 23:37:00,
2013-04-13 17:42:00,58.2,23.5,29.44,South,191,6.0,8.0,26,0.00,,---,0.00,VWS V14.01,2013-04-13 23:42:00,
2013-04-13 17:47:00,57.8,22.2,29.44,SSE,159,6.0,8.0,25,0.00,,---,0.00,VWS V14.01,2013-04-13 23:47:00,
2013-04-13 17:52:00,57.7,23.1,29.44,SW,216,0.0,1.0,26,0.00,,---,0.00,VWS V14.01,2013-04-13 23:52:00,
2013-04-13 17:57:00,58.3,22.6,29.44,WSW,240,0.0,5.0,25,0.00,,---,0.00,VWS V14.01,2013-04-13 23:57:00,
2013-04-13 18:02:00,57.9,22.3,29.44,ENE,65,2.0,2.0,25,0.00,,---,0.00,VWS V14.01,2013-04-14 00:02:00,
2013-04-13 18:07:00,57.4,21.9,29.42,South,186,2.0,3.0,25,0.00,,---,0.00,VWS V14.01,2013-04-14 00:07:00,
2013-04-13 18:12:00,57.1,21.6,29.41,ESE,114,1.0,1.0,25,0.00,,---,0.00,VWS V14.01,2013-04-14 00:12:00,
2013-04-13 18:17:00,56.6,21.2,29.40,South,185,8.0,8.0,25,0.00,,---,0.00,VWS V14.01,2013-04-14 00:17:00,
2013-04-13 18:22:00,56.3,21.9,29.42,SSW,209,6.0,8.0,26,0.00,,---,0.00,VWS V14.01,2013-04-14 00:22:00,
2013-04-13 18:27:00,56.2,21.8,29.42,SSW,203,5.0,10.0,26,0.00,,---,0.00,VWS V14.01,2013-04-14 00:27:00,
2013-04-13 18:32:00,55.8,21.5,29.42,SSW,211,12.0,16.0,26,0.00,,---,0.00,VWS V14.01,2013-04-14 00:32:00,
2013-04-13 18:37:00,55.6,21.3,29.41,South,183,10.0,10.0,26,0.00,,---,0.00,VWS V14.01,2013-04-14 00:37:00,
2013-04-13 18:42:00,55.4,21.1,29.41,South,173,0.0,1.0,26,0.00,,---,0.00,VWS V14.01,2013-04-14 00:42:00,
2013-04-13 18:47:00,55.1,20.9,29.41,SW,214,8.0,12.0,26,0.00,,---,0.00,VWS V14.01,2013-04-14 00:47:00,
2013-04-13 18:52:00,54.9,20.7,29.40,South,189,7.0,9.0,26,0.00,,---,0.00,VWS V14.01,2013-04-14 00:52:00,
2013-04-13 18:57:00,54.8,20.6,29.41,SW,227,9.0,15.0,26,0.00,,---,0.00,VWS V14.01,2013-04-14 00:57:00,
2013-04-13 19:02:00,54.3,20.2,29.43,SSW,194,2.0,8.0,26,0.00,,---,0.00,VWS V14.01,2013-04-14 01:02:00,
2013-04-13 19:07:00,54.1,20.0,29.42,ESE,123,0.0,1.0,26,0.00,,---,0.00,VWS V14.01,2013-04-14 01:07:00,
2013-04-13 19:12:00,53.9,20.7,29.30,West,271,9.0,9.0,27,0.00,,---,0.00,VWS V14.01,2013-04-14 01:12:00,
2013-04-13 19:17:00,53.7,20.5,29.29,WSW,246,15.0,16.0,27,0.00,,---,0.00,VWS V14.01,2013-04-14 01:17:00,
2013-04-13 19:22:00,53.5,20.4,29.29,South,169,7.0,9.0,27,0.00,,---,0.00,VWS V14.01,2013-04-14 01:22:00,
2013-04-13 19:27:00,53.4,19.4,29.31,South,177,12.0,13.0,26,0.00,,---,0.00,VWS V14.01,2013-04-14 01:27:00,
2013-04-13 19:32:00,53.2,19.2,29.30,SW,229,23.0,23.0,26,0.00,,---,0.00,VWS V14.01,2013-04-14 01:32:00,
2013-04-13 19:37:00,53.1,19.1,29.30,West,263,15.0,22.0,26,0.00,,---,0.00,VWS V14.01,2013-04-14 01:37:00,
2013-04-13 19:42:00,52.9,19.0,29.30,WSW,246,7.0,16.0,26,0.00,,---,0.00,VWS V14.01,2013-04-14 01:42:00,
2013-04-13 19:47:00,52.8,19.8,29.30,WSW,256,6.0,9.0,27,0.00,,---,0.00,VWS V14.01,2013-04-14 01:47:00,
2013-04-13 19:52:00,52.7,19.7,29.30,SSW,202,10.0,11.0,27,0.00,,---,0.00,VWS V14.01,2013-04-14 01:52:00,
2013-04-13 19:57:00,52.5,18.6,29.30,WSW,254,6.0,15.0,26,0.00,,---,0.00,VWS V14.01,2013-04-14 01:57:00,
2013-04-13 20:02:00,52.5,19.5,29.30,West,273,6.0,13.0,27,0.00,,---,0.00,VWS V14.01,2013-04-14 02:02:00,
2013-04-13 20:07:00,52.3,19.3,29.30,WSW,249,19.0,27.0,27,0.00,,---,0.00,VWS V14.01,2013-04-14 02:07:00,
2013-04-13 20:12:00,52.3,19.3,29.24,SSW,207,11.0,20.0,27,0.00,,---,0.00,VWS V14.01,2013-04-14 02:12:00,
2013-04-13 20:17:00,52.2,20.1,29.23,WSW,241,6.0,22.0,28,0.00,,---,0.00,VWS V14.01,2013-04-14 02:17:00,
2013-04-13 20:22:00,52.2,20.1,29.23,SW,217,15.0,22.0,28,0.00,,---,0.00,VWS V14.01,2013-04-14 02:22:00,
2013-04-13 20:27:00,52.0,19.9,29.23,WSW,252,6.0,18.0,28,0.00,,---,0.00,VWS V14.01,2013-04-14 02:27:00,
2013-04-13 20:32:00,51.7,19.7,29.24,WSW,253,10.0,24.0,28,0.00,,---,0.00,VWS V14.01,2013-04-14 02:32:00,
2013-04-13 20:37:00,51.7,19.7,29.23,WSW,256,22.0,26.0,28,0.00,,---,0.00,VWS V14.01,2013-04-14 02:37:00,
2013-04-13 20:43:00,51.8,19.8,29.22,WSW,252,19.0,25.0,28,0.00,,---,0.00,VWS V14.01,2013-04-14 02:43:00,
2013-04-13 20:47:00,51.5,20.3,29.22,SW,230,10.0,25.0,29,0.00,,---,0.00,VWS V14.01,2013-04-14 02:47:00,
2013-04-13 20:52:00,51.7,19.7,29.21,WSW,238,12.0,14.0,28,0.00,,---,0.00,VWS V14.01,2013-04-14 02:52:00,
2013-04-13 20:57:00,51.6,20.4,29.21,West,265,12.0,29.0,29,0.00,,---,0.00,VWS V14.01,2013-04-14 02:57:00,
2013-04-13 21:03:00,51.7,20.5,29.21,West,263,25.0,48.0,29,0.00,,---,0.00,VWS V14.01,2013-04-14 03:03:00,
2013-04-13 21:08:00,51.5,20.3,29.19,WSW,256,16.0,19.0,29,0.00,,---,0.00,VWS V14.01,2013-04-14 03:08:00,
2013-04-13 21:13:00,51.5,20.3,29.20,West,263,14.0,28.0,29,0.00,,---,0.00,VWS V14.01,2013-04-14 03:13:00,
2013-04-13 21:18:00,51.5,20.3,29.19,WSW,255,10.0,23.0,29,0.00,,---,0.00,VWS V14.01,2013-04-14 03:18:00,
2013-04-13 21:23:00,51.4,20.2,29.19,West,266,27.0,27.0,29,0.00,,---,0.00,VWS V14.01,2013-04-14 03:23:00,
2013-04-13 21:28:00,51.5,20.3,29.18,West,273,25.0,29.0,29,0.00,,---,0.00,VWS V14.01,2013-04-14 03:28:00,
2013-04-13 21:33:00,51.5,20.3,29.18,SW,219,24.0,29.0,29,0.00,,---,0.00,VWS V14.01,2013-04-14 03:33:00,
2013-04-13 21:38:00,51.5,20.3,29.19,SW,226,19.0,30.0,29,0.00,,---,0.00,VWS V14.01,2013-04-14 03:38:00,
2013-04-13 21:43:00,51.8,20.6,29.19,WSW,245,27.0,40.0,29,0.00,,---,0.00,VWS V14.01,2013-04-14 03:43:00,